User: anonymous   Login
Location: Observatorio Las Palmas
(29.0667°N, 110.9333°W)
Time: 07:29:38
(UTC-07:00)
Language:

Skynet4D Del rocket - Orbit

View from above orbital plane
View from above orbital plane
View from above satellite
View from above satellite

Ground track
Ground track

The orbit data is extracted from the following two-line orbital elements,

1 25135U 98002B   15149.46205127  .00000132  00000-0  11019-4 0  9994
2 25135 026.8832 166.9583 0356483 179.9965 333.3557 13.62304674866207
Epoch (UTC): 29 May 2015 11:05:21
Eccentricity: 0.0356483
inclination: 26.8832°
perigee height: 763 km
apogee height: 1291 km
right ascension of ascending node: 166.9583°
argument of perigee: 179.9965°
revolutions per day: 13.62304674
mean anomaly at epoch: 333.3557°
orbit number at epoch: 86620

The dashed part of the orbit path shows where the satellite is in the earth's shadow,  

DLR